sat.trackr.live / text

‹ back to catalog

STARLINK-32686

NORAD 62192 · 2024-229A

PAYLOAD ACTIVE UNKNOWN

§ Identity

Operator
Country
US
Launch date
2024-12-04
Launch site
AFETR
Launch vehicle
Mass (kg)
RCS (m²)

Purposes: comms

External: N2YO · Heavens-Above · Gunter

§ Orbital elements

Epoch: 2026-09-21T15:42:59.418432Z

Period
94.27 min
Inclination
42.9991°
Eccentricity
0.0001068
Mean motion
15.27585711 rev/d
Perigee alt
482.3 km
Apogee alt
483.8 km
Semi-major
6,861.2 km
B*
2.1960e-4
RAAN
240.3919°
Arg perigee
288.5080°
Mean anomaly
71.5656°
Rev number
10,057

§ Raw data

STARLINK-326861 62192U 24229A   26264.65485438  .00005787  00000+0  21960-3 0  99992 62192  42.9991 240.3919 0001068 288.5080  71.5656 15.27585711100575

JSON: /api/v1/satellites/62192 · /tle

For live sub-satellite position, see the globe view (requires WebGL).

§ Visibility from observer

Set your observer location to see the next 7 days of passes ≥ 10°. The values pass through the URL so the page stays shareable.

No JS? Fill the form by hand. The geolocation button needs JavaScript.